Regional Weather Roundup
Issued by NWS

Home | Current Version | Previous Version | Graphics & Text | Print | Product List | Glossary On
Versions: 1 2 3 4 5 6 7 8 9 10 11 12 13 14 15 16 17 18 19 20 21 22 23 24 25 26 27 28 29 30 31 32 33 34 35 36 37 38 39 40 41 42 43 44 45 46 47 48 49 50
000
ASUS43 KLSX 190559
RWRMO

WEATHER SUMMARY FOR MISSOURI
NATIONAL WEATHER SERVICE SPRINGFIELD MO
100 AM CDT SAT APR 19 2014

NOTE: "FAIR" INDICATES FEW OR NO CLOUDS BELOW 12,000 FEET WITH NO
       SIGNIFICANT WEATHER AND/OR OBSTRUCTIONS TO VISIBILITY.
       CURRENT SKY AND/OR WEATHER CONDITIONS ARE NOT AVAILABLE FOR
       CHILLICOTHE AND FARMINGTON.

MOZ001>031-035>038-043-044-053-054-190700-
...NORTHERN AND WESTERN MISSOURI...

CITY           SKY/WX    TMP DP  RH WIND       PRES   REMARKS
KANSAS CTY INT FAIR      54  41  61 SE10      30.17F
6HR MIN TEMP:  53; 6HR MAX TEMP:  66;

KANSAS C DTWN  FAIR      60  41  49 SE12      30.17S
6HR MIN TEMP:  58; 6HR MAX TEMP:  68;

LEE`S SUMMIT   FAIR      56  41  57 SE7       30.18F
6HR MIN TEMP:  56; 6HR MAX TEMP:  66;

ST JOSEPH      FAIR      56  42  59 SE9       30.17R
6HR MIN TEMP:  50; 6HR MAX TEMP:  67;

CHILLICOTHE      N/A     52  41  66 CALM      30.21S
6HR MIN TEMP:  51; 6HR MAX TEMP:  67;

KIRKSVILLE     FAIR      49  34  56 E7        30.23S
6HR MIN TEMP:  49; 6HR MAX TEMP:  64;


$$
MOZ066>068-077>081-088>096-101>105-190700-
...SOUTHWEST MISSOURI...

CITY           SKY/WX    TMP DP  RH WIND       PRES   REMARKS
SPRINGFIELD    FAIR      54  41  61 SE10      30.20R
6HR MIN TEMP:  51; 6HR MAX TEMP:  70;

JOPLIN         FAIR      57  41  55 SE7       30.18S
6HR MIN TEMP:  53; 6HR MAX TEMP:  69;


$$
MOZ032>034-039>042-045>050-055>058-069>072-190700-
...CENTRAL MISSOURI...

CITY           SKY/WX    TMP DP  RH WIND       PRES   REMARKS
COLUMBIA       FAIR      54  39  57 SE8       30.23
6HR MIN TEMP:  53; 6HR MAX TEMP:  67;

JEFFERSON CITY FAIR      48  42  80 SE5       30.23S
6HR MIN TEMP:  48; 6HR MAX TEMP:  69;

ROLLA          FAIR      52  40  63 E8        30.23S
6HR MIN TEMP:  51; 6HR MAX TEMP:  66;

SEDALIA        FAIR      54  41  61 SE10      30.21S
6HR MIN TEMP:  53; 6HR MAX TEMP:  67;

OSAGE BEACH    FAIR      57  37  47 E6        30.24S

$$
MOZ051-052-059>065-190700-
...EAST CENTRAL MISSOURI...

CITY           SKY/WX    TMP DP  RH WIND       PRES   REMARKS
ST LOUIS INTL  FAIR      57  40  52 SE3       30.25S
6HR MIN TEMP:  56; 6HR MAX TEMP:  68;

SPIRIT OF STL  FAIR      47  41  80 CALM      30.25R
6HR MIN TEMP:  46; 6HR MAX TEMP:  66;

ST CHARLES     FAIR      48  43  82 CALM      30.24S
6HR MIN TEMP:  47; 6HR MAX TEMP:  67;


$$
MOZ072>076-082>087-097>100-106>115-190700-
...SOUTH CENTRAL AND SOUTHEAST MISSOURI...

CITY           SKY/WX    TMP DP  RH WIND       PRES   REMARKS
CAPE GIRARDEAU FAIR      52  44  74 CALM      30.23R
6HR MIN TEMP:  51; 6HR MAX TEMP:  66;

FARMINGTON     FAIR      48  41  76 CALM      30.27R
6HR MIN TEMP:  48; 6HR MAX TEMP:  64;

POPLAR BLUFF   FAIR      55  44  66 N3        30.21R
6HR MIN TEMP:  55; 6HR MAX TEMP:  70;

WEST PLAINS    FAIR      49  41  74 CALM      30.25R
6HR MIN TEMP:  49; 6HR MAX TEMP:  69;


$$



USA.gov is the U.S. government's official web portal to all federal, state and local government web resources and services.